Voltar ao catálogo

STARLINK-35445

AtivoComunicaçõesVLEO
NORAD 65880·PAYLOAD·🇺🇸 United States

Lançado Oct 3, 2025 de Vandenberg Space Force Base

Loading…

Próximas Passagens (próximas 24 horas)

TLE

AtualizadoSource: CelesTrak SupGP

Época: Sep 14, 2026, 22:58 UTC

1 65880C 25223AC  26257.95743056 -.00056530  00000+0 -16704-2 0  2579
2 65880  53.1567 131.5004 0001297  89.4874 260.2895 15.34414100    15

Acompanhe STARLINK-35445 em tempo real com AllMySat

Download on the App Store